User: anonymous   Login
Location: Stull Observatory
(42.2506°N, 77.7903°W)
Time: 21:30:11
(UTC-04:00)
Language:

Abrixas rocket - Orbit

View from above orbital plane
View from above orbital plane
View from above satellite
View from above satellite

Ground track
Ground track

The orbit data is extracted from the following two-line orbital elements,

1 25723U 99022C   16274.84405887  .00008707  00000-0  15861-3 0  9991
2 25723  48.4165 106.3479 0012162 227.7963 212.3529 15.50126091966215
Epoch (UTC): 30 September 2016 20:15:26
Eccentricity: 0.0012162
inclination: 48.4165°
perigee height: 408 km
apogee height: 424 km
right ascension of ascending node: 106.3479°
argument of perigee: 227.7963°
revolutions per day: 15.50126091
mean anomaly at epoch: 212.3529°
orbit number at epoch: 96621

The dashed part of the orbit path shows where the satellite is in the earth's shadow,  

DLR